Date,TemperatureHighF,TemperatureAvgF,TemperatureLowF,DewpointHighF,DewpointAvgF,DewpointLowF,HumidityHigh,HumidityAvg,HumidityLow,PressureMaxIn,PressureMinIn,WindSpeedMaxMPH,WindSpeedAvgMPH,GustSpeedMaxMPH,PrecipitationSumIn
2013-3-1,41.5,37.0,34.9,35.0,31.8,28.9,90,81,70,30.24,30.13,0,0,0,0.00
2013-3-2,57.9,36.4,26.6,38.7,28.9,23.9,94,75,48,30.27,30.12,0,0,0,0.00
2013-3-3,43.7,32.8,23.5,33.7,27.5,21.6,94,81,62,30.24,30.09,0,0,0,0.00
2013-3-4,60.6,37.8,25.5,39.6,28.5,22.7,95,72,43,30.30,30.20,0,0,0,0.00
2013-3-5,59.4,40.3,24.1,38.1,29.3,20.8,90,67,43,30.20,29.89,0,0,0,0.00
2013-3-6,65.1,41.6,25.9,40.9,30.8,23.1,92,68,40,29.90,29.65,0,0,0,0.00
2013-3-7,54.5,43.5,33.3,46.0,39.8,30.7,99,87,71,29.67,29.59,0,0,0,0.00
2013-3-8,51.3,45.5,40.5,47.8,43.5,38.6,99,93,84,29.68,29.63,0,0,0,0.00
2013-3-9,43.7,40.9,38.5,42.5,40.3,38.2,99,98,94,29.68,29.59,0,0,0,0.00
2013-3-10,57.4,46.0,40.5,53.0,44.1,40.2,99,94,71,29.60,29.42,0,0,0,0.00
2013-3-11,45.0,31.7,27.5,44.7,26.8,21.3,99,82,71,29.70,29.43,0,0,0,0.00
2013-3-12,33.8,29.4,27.1,26.9,24.0,21.1,89,80,70,29.70,29.53,0,0,0,0.00
2013-3-13,34.3,28.1,25.0,24.7,22.1,18.2,92,78,60,29.74,29.52,0,0,0,0.00
2013-3-14,48.7,28.8,15.8,28.1,18.1,11.7,85,66,40,29.83,29.73,0,0,0,0.00
2013-3-15,49.8,28.6,20.1,28.6,19.3,15.8,86,69,39,30.09,29.81,0,0,0,0.00
2013-3-16,56.3,31.4,15.4,27.6,17.4,11.8,87,59,30,30.16,30.03,0,0,0,0.00
2013-3-17,51.1,34.4,23.9,26.1,19.1,14.1,70,55,37,30.04,29.70,0,0,0,0.00
2013-3-18,47.1,35.3,29.5,33.3,27.3,20.5,99,74,50,29.71,29.25,0,0,0,0.00
2013-3-19,41.5,34.6,29.5,34.9,32.0,28.5,99,90,74,29.60,29.24,0,0,0,0.00
2013-3-20,65.5,41.5,26.6,44.7,34.4,26.1,99,78,46,29.79,29.59,0,0,0,0.00
2013-3-21,39.6,34.8,28.6,37.7,29.8,22.2,99,83,64,30.09,29.78,0,0,0,0.00
2013-3-22,43.9,32.6,29.3,29.6,24.3,20.4,85,71,55,30.14,30.07,0,0,0,0.00
2013-3-23,45.7,30.1,19.2,21.3,11.4,0.9,69,47,21,30.24,30.13,0,0,0,0.00
2013-3-24,43.7,27.3,16.2,12.6,6.2,0.3,59,42,22,30.24,30.09,0,0,0,0.00
2013-3-25,36.7,29.4,23.5,13.6,11.1,7.7,60,47,31,30.11,29.94,0,0,0,0.00
2013-3-26,41.0,31.2,24.4,14.5,11.7,5.3,63,45,24,29.95,29.86,0,0,0,0.00
2013-3-27,36.0,30.5,27.3,27.1,21.0,12.6,85,68,51,29.94,29.88,0,0,0,0.00
2013-3-28,42.4,34.6,28.8,28.8,26.8,22.6,89,73,57,29.92,29.78,0,0,0,0.00
2013-3-29,50.9,37.8,32.2,40.7,30.1,23.9,96,75,53,29.78,29.66,0,0,0,0.00
2013-3-30,56.1,39.2,30.6,35.4,28.1,23.6,85,66,42,29.99,29.68,0,0,0,0.00
2013-3-31,45.5,37.0,33.1,29.7,26.9,23.7,83,68,47,30.04,29.96,0,0,0,0.00